Other Public Products
Issued by NWS Grand Forks, ND

Home | Current Version | Previous Version | Graphics & Text | Print | Product List | Glossary On
Versions: 1 2 3 4 5 6 7 8 9 10 11 12 13 14 15 16 17 18 19 20 21 22 23 24 25 26 27 28 29 30 31 32 33 34 35 36 37 38 39 40 41 42 43 44 45 46 47 48 49 50
000
FPUS83 KFGF 231710
OPUFGF
PRAIRIE TO PINES WEATHER ROUNDUP
NATIONAL WEATHER SERVICE EASTERN NORTH DAKOTA/GRAND FORKS ND
1200 PM CDT SAT SEP 23 2017

 **SATELLITE DATA USED TO AUGMENT SKY COVER AT AUTOMATED STATIONS**
 *****  WEATHER ACROSS EASTERN NORTH DAKOTA  *****

CITY           SKY/WX    TMP DP  RH WIND       PRES   REMARKS
GRAND FORKS    CLOUDY    57  50  77 N14       30.05R
GRAND FORKS AF CLOUDY    57  47  71 N13G18    30.06R
GRAND CITY NWS NOT AVBL
BUXTON         NOT AVBL
DEVILS LAKE    CLOUDY    51  45  79 NW10      30.11R
FARGO          CLOUDY    55  50  83 N10       30.04R
WAHPETON ARPT  CLOUDY    52  48  87 N8        30.04S
$$

 *****  WEATHER ACROSS CENTRAL AND WESTERN NORTH DAKOTA  *****

CITY           SKY/WX    TMP DP  RH WIND       PRES   REMARKS
JAMESTOWN      PTSUNNY   58  47  66 N13G21    30.05F
BISMARCK       CLOUDY    51  47  86 N7        30.13R
MINOT          CLOUDY    53  44  71 NW10      30.13R
MINOT AFB      CLOUDY    51  43  75 N8        30.12R
GARRISON         N/A     50  43  77 N8        30.13R
WILLISTON      CLOUDY    49  42  77 NE6       30.16S
DICKINSON      CLOUDY    46  43  89 NE6       30.13R
HETTINGER      CLOUDY    46  41  82 N7        30.13F
$$

 *****  OTHER OBSERVATIONS NORTHEAST NORTH DAKOTA  *****

CITY           SKY/WX    TMP DP  RH WIND       PRES   REMARKS
WALHALLA       FAIR     N/A N/A N/A N14       30.07F
LANGDON        CLOUDY    52  50  93 NW14      30.10R
CAVALIER       CLOUDY    54  48  82 N12G18    30.07R
GRAFTON        CLOUDY    55  48  76 N15       30.08R
CANDO          CLOUDY    54  50  87 N8G14     30.13R
FORT TOTTEN      N/A     53  46  78 N5        29.95S
ROLLA          CLOUDY    50  45  81 NW12      30.11F
RUGBY          PTSUNNY   52  45  76 VRB7      30.11S
 ***** THE ABOVE OBSERVATIONS ARE NON NWS ARE NOT QUALITY
        CONTROLLED AND MAY MIS-REPORT RAIN FOR SNOW...
$$

 *****  OTHER OBSERVATIONS SOUTHEAST NORTH DAKOTA *****

CITY           SKY/WX    TMP DP  RH WIND       PRES   REMARKS
COOPERSTOWN    CLOUDY    55  48  76 N13G18    30.06F
VALLEY CITY    CLOUDY    55  52  88 N10       30.06F
OAKES          NOT AVBL
GWINNER        CLOUDY    52  50  93 N8        30.06R
SHEYENNE NWR     N/A     53  51  91 N6        29.95S
BUFFALO        NOT AVBL
WYNDMERE       NOT AVBL
 ***** THE ABOVE OBSERVATIONS ARE NON NWS ARE NOT QUALITY
       CONTROLLED AND MAY MIS-REPORT RAIN FOR SNOW...
$$

  *****  WEATHER ACROSS NORTHERN MINNESOTA  *****

CITY           SKY/WX    TMP DP  RH WIND       PRES   REMARKS
FLAG ISLAND    CLOUDY    54  52  94 NW13      29.97R
WARROAD        CLOUDY    54  50  87 NW10      29.99S
ROSEAU         CLOUDY    54  48  82 NW9       30.00S
HALLOCK          N/A     57  50  77 NW16G22   30.04S
THF RVR FALLS  CLOUDY    53  50  89 NW9       30.03R
HALSTAD        NOT AVBL
FOSSTON        CLOUDY    52  50  93 NW6       30.04R
BAUDETTE       CLOUDY    55  54  96 NW8       29.98R
WASKISH        CLOUDY    55  54  94 W6        29.99R
CROOKSTON      CLOUDY    55  50  82 N12G17    30.04R
$$
  *****  WEATHER ACROSS CENTRAL AND WEST MINNESOTA  *****

CITY           SKY/WX    TMP DP  RH WIND       PRES   REMARKS
BEMIDJI        CLOUDY    53  52  95 NW6       30.02R
PARK RAPIDS    LGT RAIN  56  53  90 NW7       30.00R
WADENA         CLOUDY    57  57 100 W7        30.01R
DETROIT LAKES  RAIN      52  50  93 N7        30.01S
MOORHEAD       CLOUDY    54  48  82 N8        30.05R
FERGUS FALLS   LGT RAIN  52  52 100 N3        30.04R
ELBOW LAKE     CLOUDY    54  53  97 NW7       30.04S
MORRIS MN      NOT AVBL
STAPLES        CLOUDY    61  55  82 N6        30.00S
WHEATON        DRIZZLE   54  50  87 N6        30.05F
$$
  *****  WEATHER ELSEWHERE ACROSS MINNESOTA  *****

CITY           SKY/WX    TMP DP  RH WIND       PRES   REMARKS
DULUTH         FAIR      79  71  76 S8        29.94F
INTRNTL FALLS  CLOUDY    59  55  87 NW8       29.95R
ELY            FAIR      72  64  78 SW7       29.93F
CLOQUET        FAIR      81  68  65 S8        29.95S
BRAINERD       CLOUDY    64  62  93 W7        29.99R
HIBBING        PTSUNNY   71  66  84 W7        29.97R
ALEXANDRIA     CLOUDY    61  58  90 NW6       30.02S
SAINT CLOUD    FAIR      81  71  71 SW8       29.96R
MINNEAPOLIS    FAIR      84  70  62 S10       29.96S
$$

  *****  WEATHER ACROSS SOUTH DAKOTA  *****

CITY           SKY/WX    TMP DP  RH WIND       PRES   REMARKS
SIOUX FALLS    CLOUDY    72  67  84 E6        29.97S
BROOKINGS      CLOUDY    64  58  80 N8        30.00R
WATERTOWN      RAIN      55  54  96 NE10      30.02R FOG
HURON          LGT RAIN  55  55 100 NE12      29.97F
SISSETON         N/A     54  53  97 NW9       30.05R
ABERDEEN       LGT RAIN  53  52  96 NE9       30.03F
MITCHELL       LGT RAIN  56  55  97 N8        29.98F
PIERRE         CLOUDY    50  48  93 NE13      30.02F FOG
MOBRIDGE       CLOUDY    55  48  77 N14       30.03F
RAPID CITY     CLOUDY    46  43  87 N16       30.05F
$$

  *****  SOME WEATHER IN NEARBY STATES *****

CITY           SKY/WX    TMP DP  RH WIND       PRES   REMARKS
GLASGOW MT     FAIR      48  38  68 SE6       30.14F
GREAT FALLS MT FAIR      42  36  79 S7        30.09R
CHEYENNE WY    CLOUDY    44  37  76 N9        30.01S
SCOTTSBLUFF NE CLOUDY    46  42  86 N9        30.03R
OMAHA NE       PTSUNNY   85  67  54 S20       29.96F
DES MOINES IA  FAIR      88  66  48 S14       30.02F HX  90
DAVENPORT IA   FAIR      88  67  49 S5        30.09F HX  91
CHICAGO IL     FAIR      91  63  39 S7        30.09F HX  92
EAU CLAIRE WI  FAIR      83  68  60 SW8       30.00S
LA CROSSE WI   FAIR      88  69  53 S10       30.02F HX  92
$$

  *****  SOME NATIONAL WEATHER *****

CITY           SKY/WX    TMP DP  RH WIND       PRES   REMARKS
LA GUARDIA NY  FAIR      81  56  42 N15G23    30.03F
RALEIGH NC     FAIR      83  60  45 E10       30.08F
ATLANTA GA     FAIR      83  64  52 E8        30.07F
NEW ORLEANS LA FAIR      88  73  61 NE8       29.96F HX  95
OKLAHOMA CITY  PTSUNNY   85  67  54 S17       29.99F
ALBUQUERQUE NM PTSUNNY   73  44  35 SW10      29.90S
SALT LAKE CITY PTSUNNY   49  38  65 N3        29.96S
LOS ANGELES CA FAIR      67  53  61 VRB3      29.86S
BOISE ID       FAIR      48  40  73 W3        30.08R
SEATTLE WA     PTSUNNY   59  50  72 S6        30.10S
$$

*** WEATHER ACROSS MANITOBA...SASKATCHEWAN AND ONTARIO ***
                ***ONTARIO***

CITY           SKY/WX    TMP DP  RH WIND       PRES   REMARKS
GERALDTON      PTSUNNY   77  70  78 SW15G22   29.86S FOG
THUNDER BAY    CLOUDY    81  68  65 SW9       29.88S
SIOUX LOOKOUT  CLOUDY    57  55  94 W7        29.91R
TORONTO        PTSUNNY   88  59  37 NW3       30.12F
BIG TROUT LK   LGT RAIN  48  48 100 NE7       30.00R
PICKLE LAKE    CLOUDY    55  55 100 NE5       29.85S FOG
DRYDEN         CLOUDY    55  55 100 W12       29.93S FOG
KENORA         CLOUDY    54  52  94 NW7       29.97R
$$
                *** MANITOBA***

CITY           SKY/WX    TMP DP  RH WIND       PRES   REMARKS
BRANDON        CLOUDY    52  45  76 N8        30.13R
DAUPHIN        PTSUNNY   52  43  71 VRB2      30.12F
ISLAND LAKE    NOT AVBL
PILOT MOUND      N/A     50  45  81 NW12        N/A
THE PAS        LGT RAIN  46  43  87 SE3       30.13R FOG
THOMPSON       CLOUDY    41  37  87 NE9       30.16S
WINNIPEG       CLOUDY    54  48  82 N10       30.06S
LYNN LAKE      CLOUDY    39  37  93 E8        30.18S
CHURCHILL      CLOUDY    41  34  75 N13       30.22R
GILLAM         CLOUDY    41  37  87 NE12      30.16S FOG
$$
                ***SASKATCHEWAN***

CITY           SKY/WX    TMP DP  RH WIND       PRES   REMARKS
ESTEVAN        CLOUDY    48  37  66 NW7       30.15R
KINDERSLEY     PTSUNNY   46  39  76 SE5       30.11S
LLOYDMINSTER   CLOUDY    45  39  81 S7        30.11S
PRINCE ALBERT  CLOUDY    48  39  71 VRB2      30.15S
REGINA         CLOUDY    46  37  71 W3        30.16R
YORKTON        CLOUDY    48  41  76 N6        30.14S


USA.gov is the U.S. government's official web portal to all federal, state and local government web resources and services.